ONEWEB-0283 (49001 NORAD) Tracking and Keplerian Element Data

This shows tracking and keplerian element data for the satellite.

Feedback or suggestion? Click here.




ElementValue
Catalog49001
NameONEWEB-0283
Epoch Orbit1297
Epoch Day262.16668981
Epoch Year2021
RAAN213.45
Inclination87.8228
Eccentricity0.0011317
Argument of Perigee353.1341
Mean Anonmoly58.248
Mean Motion13.62104185
Decay Rate1.5E-07
L11 49001U 21060AL 21262.16668981 .00000015 00000-0 00000+0 0 9996
L22 49001 87.8228 213.4500 0011317 353.1341 58.2480 13.62104185 12976

Live tracking and technical data element details for ONEWEB-0283 (NORAD 49001). ONEWEB-0283 can be tracked NOW for your location showing map with azimuth and elevation plus other details from your city location.

Track the satellite on the map from your city or location and see movement details for azimuth, elevation, latitude, longitude, range, height, and movement on the map or in text.







IsCatalogInMostPopularTable: catalog: 49001, numindb: 15
Update: records affected: 1



GetName: 49001 ONEWEB-0283

Hit Count: updated at: Fri, 24 Sep 2021 17:48:07 GMT